STARLINK-11259, 60721

Orbit data source: Space-Track

STARLINK-11259, 60721 is a payload satellite owned by SpaceX/Seattle (US) in LEO that was launched on Wed, 28 Aug 2024 UTC via an FALCON 9 launch vehicle from the Air Force Eastern Test Range (AFETR). Payload-class satellites include a variety of spacecraft equipped with specific instruments for various scientific and technological missions. These include communications satellites like Starlink; space stations such as the ISS; scientific satellites like the Hubble; Earth observation satellites from companies like Planet Labs, Umbra, and HawkEye 360; GPS; miniature CubeSats for education and research; and military/defense satellites.

Loading next visibility...
Identifier
60721, 2024-152B
Orbit
LEO
Country
Flag of USUS
Related business
Manufacturer
SpaceX/Seattle
Mission
Operational Commercial Communications
Bus & Motor
STARLINK V2MD, Unknown motor
Mass
960 kg wet, ~910 kg dry
Launch date (UTC)
2024-08-28 (2 years ago)
Launch vehicle
FALCON 9
Launch site
Air Force Eastern Test Range (AFETR)
Object type
Payload
Rocket body
Debris
Shape & HBR
Box + 2 Pan, 18.1 m
Radar Cross Section
36.964 m², Large (>1 m²)

Expand to show TLE details & history
Last TLE update: 16 hours ago

TLE from 16 hours ago
0 STARLINK-11259
1 60721U 24152B   26119.57493514  .00001657  00000-0  18541-4 0  9999
2 60721  53.1581 225.6688 0000902  78.4477 281.6642 15.69696892 96821
Epoch: 2026-04-29T13:47Z
TLE epoch observation values (Epoch: 2026-04-29T13:47:54.396Z)
Latitude
-0.00001°
Longitude
161.15821°
Altitude
360.556 km
Speed
7.694 km/s
True Right ascension
15h 02m 40s
True Declination
0° 00' 00"
Sunlit
Object was in full shadow at epoch
Visualization orbit readout
Latitude
Unknown
Longitude
Unknown
Altitude
Unknown
Speed
Unknown
Apparent Right ascension
Unknown
Apparent Declination
Unknown
Sunlit
N/A
Visualization observer readout
Local Sidereal Time
13:40:43
Azimuth
Unknown
Elevation
Unknown
Doppler factor
Unknown
Orbital elements
Apogee altitude
360.633 km
Perigee altitude
359.417 km
Semi-major axis
6,738.162 km
Eccentricity
0.00009
Inclination
53.1581°
RAAN
225.6688°
Arg. of periapsis
78.4477°
True anomaly
281.65408°
Mean anomaly
281.6642°
Eccentric anomaly
281.65914°
Mean motion
3.92402 °/min
Orbital period
91.74 mins
BSTAR
0.000018541
Loading maneuver chart data...
Computing Atmospheric mass density...
Loading historical data...
Loading historical data...
Loading historical data...
Loading historical data...
Loading historical data...
Loading historical data...
Loading historical data...

Documentation

Showing up to 5 results
|